• In Belarus
  • List of Countries
  • For 7 days
  • Water Temperature
  • Satellite Maps
  • Weather Map
  • Weather Widgets
  • user-avatar
    Login

    Hourly Weather Studzieniec

    Today, 19 February, Tuesday

    Time Temperature Precipitation Wind Pressure Humidity
    00:00 +4°C° 0 mm 2 mps 743 mmHg 74%
    01:00 +2°C° 0 mm 3 mps 743 mmHg 76%
    02:00 +2°C° 0 mm 3 mps 743 mmHg 77%
    03:00 +2°C° 0 mm 3 mps 742 mmHg 77%
    04:00 +1°C° 0 mm 3 mps 742 mmHg 78%
    05:00 +1°C° 0 mm 3 mps 742 mmHg 77%
    06:00 +1°C° 0 mm 3 mps 742 mmHg 76%
    07:00 +1°C° 0 mm 3 mps 742 mmHg 75%
    08:00 +3°C° 0 mm 4 mps 741 mmHg 68%
    09:00 +5°C° 0 mm 5 mps 741 mmHg 62%
    10:00 +7°C° 0 mm 6 mps 741 mmHg 56%
    11:00 +7°C° 0 mm 6 mps 741 mmHg 54%
    12:00 +8°C° 0 mm 6 mps 741 mmHg 52%
    13:00 +9°C° 0 mm 5 mps 740 mmHg 51%
    14:00 +9°C° 0 mm 5 mps 740 mmHg 52%
    15:00 +10°C° 0 mm 4 mps 740 mmHg 54%
    16:00 +8°C° 0 mm 4 mps 740 mmHg 55%
    17:00 +7°C° 0 mm 4 mps 740 mmHg 60%
    18:00 +7°C° 0 mm 4 mps 740 mmHg 65%
    19:00 +6°C° 0 mm 4 mps 740 mmHg 69%
    20:00 +5°C° 0.2 mm 4 mps 740 mmHg 73%
    21:00 +5°C° 0.2 mm 4 mps 740 mmHg 77%
    22:00 +5°C° 0.2 mm 5 mps 740 mmHg 81%
    23:00 +5°C° 0.6 mm 4 mps 740 mmHg 84%

    Tomorrow, 20 February, Wednesday

    Time Temperature Precipitation Wind Pressure Humidity
    00:00 +4°C° 0.6 mm 4 mps 740 mmHg 87%
    01:00 +4°C° 0.6 mm 3 mps 741 mmHg 89%
    02:00 +4°C° 0 mm 4 mps 741 mmHg 90%
    03:00 +3°C° 0 mm 4 mps 741 mmHg 92%
    04:00 +2°C° 0 mm 5 mps 741 mmHg 93%
    05:00 +2°C° 0.1 mm 5 mps 741 mmHg 91%
    06:00 +2°C° 0.1 mm 5 mps 741 mmHg 90%
    07:00 +2°C° 0.1 mm 5 mps 742 mmHg 88%
    08:00 +2°C° 0.1 mm 6 mps 742 mmHg 85%
    09:00 +2°C° 0.1 mm 6 mps 742 mmHg 82%
    10:00 +3°C° 0.1 mm 6 mps 743 mmHg 79%
    11:00 +3°C° 0.1 mm 6 mps 743 mmHg 75%
    12:00 +3°C° 0.1 mm 7 mps 743 mmHg 72%
    13:00 +4°C° 0.1 mm 7 mps 743 mmHg 68%
    14:00 +4°C° 0.1 mm 7 mps 743 mmHg 68%
    15:00 +4°C° 0.1 mm 6 mps 744 mmHg 68%
    16:00 +3°C° 0.1 mm 6 mps 744 mmHg 68%
    17:00 +3°C° 0 mm 5 mps 744 mmHg 71%
    18:00 +3°C° 0 mm 5 mps 744 mmHg 74%
    19:00 +3°C° 0 mm 5 mps 745 mmHg 77%
    20:00 +3°C° 0 mm 4 mps 745 mmHg 78%
    21:00 +3°C° 0 mm 4 mps 745 mmHg 79%
    22:00 +3°C° 0 mm 4 mps 745 mmHg 80%
    23:00 +3°C° 0 mm 4 mps 745 mmHg 81%

    Day after tomorrow, 21 February, Thursday

    Time Temperature Precipitation Wind Pressure Humidity
    00:00 +3°C° 0 mm 4 mps 746 mmHg 83%
    01:00 +3°C° 0 mm 4 mps 746 mmHg 84%
    02:00 +3°C° 0 mm 4 mps 746 mmHg 87%
    03:00 +3°C° 0 mm 4 mps 745 mmHg 89%
    04:00 +3°C° 0 mm 4 mps 745 mmHg 92%
    05:00 +3°C° 0.1 mm 4 mps 745 mmHg 90%
    06:00 +3°C° 0.1 mm 4 mps 745 mmHg 89%
    07:00 +3°C° 0.1 mm 4 mps 745 mmHg 87%
    08:00 +2°C° 0.3 mm 5 mps 745 mmHg 86%
    09:00 +2°C° 0.3 mm 5 mps 745 mmHg 84%
    10:00 +3°C° 0.3 mm 6 mps 745 mmHg 83%
    11:00 +3°C° 0.4 mm 6 mps 745 mmHg 83%
    12:00 +3°C° 0.4 mm 6 mps 744 mmHg 84%
    13:00 +3°C° 0.4 mm 6 mps 744 mmHg 85%
    14:00 +3°C° 1.1 mm 6 mps 744 mmHg 86%
    15:00 +3°C° 1.1 mm 6 mps 744 mmHg 87%
    16:00 +3°C° 1.1 mm 5 mps 744 mmHg 88%
    17:00 +3°C° 0.4 mm 5 mps 744 mmHg 89%
    18:00 +3°C° 0.4 mm 5 mps 744 mmHg 90%
    19:00 +3°C° 0.4 mm 5 mps 744 mmHg 91%
    20:00 +3°C° 0.2 mm 5 mps 744 mmHg 92%
    21:00 +4°C° 0.2 mm 4 mps 744 mmHg 93%
    22:00 +4°C° 0.2 mm 4 mps 744 mmHg 94%
    23:00 +4°C° 0.1 mm 4 mps 744 mmHg 94%

    22 February, Friday

    Time Temperature Precipitation Wind Pressure Humidity
    00:00 +4°C° 0.1 mm 4 mps 744 mmHg 94%
    01:00 +4°C° 0.1 mm 4 mps 744 mmHg 95%
    02:00 +4°C° 0.5 mm 4 mps 745 mmHg 94%
    03:00 +3°C° 0.5 mm 5 mps 745 mmHg 93%
    04:00 +3°C° 0.5 mm 5 mps 745 mmHg 93%
    05:00 +1°C° 0.1 mm 5 mps 746 mmHg 89%
    06:00 -1°C° 0.1 mm 6 mps 747 mmHg 85%
    07:00 -3°C° 0.1 mm 6 mps 748 mmHg 82%
    08:00 -3°C° 0 mm 6 mps 750 mmHg 75%
    09:00 -3°C° 0 mm 6 mps 751 mmHg 69%
    10:00 -3°C° 0 mm 6 mps 752 mmHg 62%
    11:00 -3°C° 0 mm 6 mps 753 mmHg 59%
    12:00 -3°C° 0 mm 6 mps 754 mmHg 55%
    13:00 -1°C° 0 mm 5 mps 754 mmHg 52%
    14:00 -2°C° 0 mm 5 mps 755 mmHg 52%
    15:00 -2°C° 0 mm 5 mps 755 mmHg 52%
    16:00 -2°C° 0 mm 5 mps 756 mmHg 52%
    17:00 -4°C° 0 mm 5 mps 756 mmHg 53%
    18:00 -5°C° 0 mm 5 mps 757 mmHg 53%
    19:00 -5°C° 0 mm 5 mps 758 mmHg 54%
    20:00 -4°C° 0 mm 4 mps 758 mmHg 52%
    21:00 -5°C° 0 mm 4 mps 759 mmHg 49%
    22:00 -5°C° 0 mm 4 mps 759 mmHg 47%
    23:00 -5°C° 0 mm 3 mps 759 mmHg 45%

    23 February, Saturday

    Time Temperature Precipitation Wind Pressure Humidity
    00:00 -5°C° 0 mm 3 mps 759 mmHg 43%
    01:00 -4°C° 0 mm 2 mps 759 mmHg 42%
    02:00 -4°C° 0 mm 2 mps 759 mmHg 42%
    03:00 -4°C° 0 mm 2 mps 759 mmHg 42%
    04:00 -4°C° 0 mm 2 mps 759 mmHg 43%
    05:00 -4°C° 0 mm 2 mps 759 mmHg 43%
    06:00 -4°C° 0 mm 2 mps 759 mmHg 43%
    07:00 -2°C° 0 mm 1 mps 759 mmHg 44%
    08:00 -1°C° 0 mm 1 mps 759 mmHg 39%
    09:00 0°C° 0 mm 1 mps 759 mmHg 34%
    10:00 +1°C° 0 mm 1 mps 759 mmHg 30%
    11:00 -1°C° 0 mm 2 mps 759 mmHg 29%
    12:00 +1°C° 0 mm 2 mps 759 mmHg 28%
    13:00 0°C° 0 mm 3 mps 758 mmHg 27%
    14:00 0°C° 0 mm 3 mps 758 mmHg 30%
    15:00 0°C° 0 mm 3 mps 757 mmHg 33%
    16:00 0°C° 0 mm 3 mps 757 mmHg 35%
    17:00 -1°C° 0 mm 2 mps 757 mmHg 37%
    18:00 -1°C° 0 mm 2 mps 756 mmHg 39%
    19:00 -1°C° 0 mm 2 mps 756 mmHg 41%
    20:00 -1°C° 0 mm 2 mps 756 mmHg 43%
    21:00 -1°C° 0 mm 2 mps 756 mmHg 44%
    22:00 -1°C° 0 mm 2 mps 756 mmHg 46%
    23:00 -1°C° 0 mm 2 mps 756 mmHg 47%

    24 February, Sunday

    Time Temperature Precipitation Wind Pressure Humidity
    00:00 -1°C° 0 mm 2 mps 756 mmHg 49%
    01:00 -2°C° 0 mm 2 mps 755 mmHg 50%
    02:00 -1°C° 0 mm 2 mps 755 mmHg 53%
    03:00 -1°C° 0 mm 2 mps 755 mmHg 56%
    04:00 -1°C° 0 mm 2 mps 755 mmHg 58%
    05:00 -1°C° 0 mm 2 mps 756 mmHg 64%
    06:00 -1°C° 0 mm 2 mps 756 mmHg 69%
    07:00 -1°C° 0 mm 2 mps 756 mmHg 74%
    08:00 +1°C° 0 mm 2 mps 756 mmHg 77%
    09:00 +1°C° 0 mm 2 mps 756 mmHg 79%
    10:00 +2°C° 0 mm 2 mps 756 mmHg 81%
    11:00 +2°C° 0 mm 2 mps 756 mmHg 81%
    12:00 +3°C° 0 mm 2 mps 756 mmHg 81%
    13:00 +4°C° 0 mm 2 mps 756 mmHg 81%
    14:00 +3°C° 0 mm 2 mps 756 mmHg 84%
    15:00 +3°C° 0 mm 2 mps 756 mmHg 87%
    16:00 +3°C° 0 mm 2 mps 755 mmHg 90%
    17:00 +2°C° 0 mm 2 mps 755 mmHg 92%
    18:00 +3°C° 0 mm 1 mps 755 mmHg 93%
    19:00 +2°C° 0 mm 1 mps 755 mmHg 95%
    20:00 +2°C° 0 mm 1 mps 755 mmHg 95%
    21:00 +1°C° 0 mm 2 mps 755 mmHg 95%
    22:00 +1°C° 0 mm 2 mps 754 mmHg 95%
    23:00 +1°C° 0 mm 2 mps 754 mmHg 95%
    Show more